Location: Malvern Link
(52.1333°N, 2.3000°W)
Time: 08:00:27
(UTC+00:00)

QB50P2 - Pass Details

Date: 05 July 2022
Orbit: 590 x 605 km, 97.9° (Epoch: 15 August)

Event Time Altitude Azimuth Distance (km) Brightness Sun altitude
Rises 00:45:49 0° 24° (NNE) 2,866 ? -14.7°
Reaches altitude 10° 00:48:21 10° 38° (NE) 1,960 ? -14.7°
Maximum altitude 00:51:50 24° 93° (E) 1,259 ? -14.6°
Enters shadow 00:54:40 13° 142° (SE) 1,752 ? -14.5°
